Weather History for Dayton, OH

Change the Weather History Date:

Sunday, December 29, 2013

  Actual Average Record
Temperature  
Mean Temperature 37 °F 28 °F  
Max Temperature 44 °F 35 °F 62 °F (1984)
Min Temperature 30 °F 21 °F -5 °F (1983)
Degree Days  
Heating Degree Days 28 37  
Month to date heating degree days 917 974  
Since 1 July heating degree days 2041 2085  
Cooling Degree Days 0 0  
Month to date cooling degree days 0 0  
Year to date cooling degree days 1062 891  
Moisture  
Dew Point 33 °F    
Average Humidity 73    
Maximum Humidity 92    
Minimum Humidity 53    
Precipitation  
Precipitation 0.16 in 0.10 in 0.80 in (1984)
Month to date precipitation 4.58 2.92  
Year to date precipitation 36.53 40.85  
Snow  
Snow 0.00 in 0.20 in 3.30 in (1902)
Month to date snowfall 12.5 4.1  
Since 1 July snowfall 14.5 5.1  
Snow Depth 0.00 in    
Sea Level Pressure  
Sea Level Pressure 29.89 in    
Wind  
Wind Speed 11 mph (WSW)    
Max Wind Speed 22 mph    
Max Gust Speed 29 mph    
Visibility 7 miles    
Events Rain    
T = Trace of Precipitation, MM = Missing Value Source: NWS Daily Summary

Daily Weather History Graph

Daily Weather History Graph

Search for Another Location

Airport:

Trip Planner

Search our weather history database for the weather conditions in past years. The results will help you decide how hot, cold, wet, or windy it might be!

Date:

Astronomy

Dec. 29, 2013 Rise Set
Actual Time 7:57 AM EST 5:20 PM EST
Civil Twilight 7:27 AM EST 5:50 PM EST
Nautical Twilight 6:53 AM EST 6:24 PM EST
Astronomical Twilight 6:20 AM EST 6:57 PM EST
Moon 4:40 AM EST (12/29) 2:57 PM EST (12/29)
Length of Visible Light 10h 23m
Length of Day
9h 22m
Waning Crescent, 11% of the Moon is Illuminated
Dec 29
Waning Crescent
Jan 1
New
Jan 7
First Quarter
Jan 15
Full
Jan 24
Last Quarter

Hourly Weather History & Observations

Time (EST) Temp. Windchill Dew Point Humidity Pressure Visibility Wind Dir Wind Speed Gust Speed Precip Events Conditions
12:56 AM 43.0 °F 37.7 °F 27.0 °F 53% 29.99 in 10.0 mi South 9.2 mph - N/A   Overcast
1:56 AM 42.1 °F 37.1 °F 27.0 °F 55% 29.96 in 10.0 mi South 8.1 mph - N/A   Overcast
2:56 AM 42.1 °F 37.7 °F 26.1 °F 53% 29.95 in 10.0 mi South 6.9 mph - N/A   Overcast
3:56 AM 43.0 °F 39.5 °F 26.1 °F 51% 29.94 in 10.0 mi South 5.8 mph - N/A   Overcast
4:56 AM 39.0 °F 34.8 °F 32.0 °F 76% 29.89 in 10.0 mi SSE 5.8 mph - 0.00 in Rain Light Rain
5:56 AM 39.0 °F 33.4 °F 34.0 °F 82% 29.88 in 9.0 mi South 8.1 mph - 0.01 in Rain Light Rain
6:56 AM 37.9 °F 32.1 °F 35.1 °F 89% 29.88 in 8.0 mi SSW 8.1 mph - 0.01 in Rain Light Rain
7:06 AM 37.4 °F 32.1 °F 35.6 °F 93% 29.88 in 5.0 mi SW 6.9 mph - 0.00 in Rain Light Rain
7:18 AM 37.4 °F 32.1 °F 35.6 °F 93% 29.88 in 4.0 mi SW 6.9 mph - 0.02 in Rain Light Rain
7:41 AM 37.4 °F 34.9 °F 35.6 °F 93% 29.87 in 4.0 mi SW 3.5 mph - 0.03 in Rain Light Rain
7:56 AM 37.0 °F 34.5 °F 36.0 °F 96% 29.88 in 4.0 mi SW 3.5 mph - 0.05 in Rain Light Rain
8:17 AM 37.4 °F - 35.6 °F 93% 29.86 in 4.0 mi Calm Calm - 0.01 in Rain Light Rain
8:56 AM 37.9 °F 33.5 °F 36.0 °F 93% 29.87 in 3.0 mi South 5.8 mph - 0.02 in Rain Light Rain
9:56 AM 37.9 °F 31.5 °F 36.0 °F 93% 29.85 in 3.0 mi South 9.2 mph - 0.04 in Rain Light Rain
10:47 AM 39.2 °F 32.5 °F 37.4 °F 93% 29.82 in 5.0 mi SSW 10.4 mph - 0.02 in Rain Light Rain
10:56 AM 39.0 °F 32.8 °F 37.0 °F 93% 29.83 in 5.0 mi SSW 9.2 mph - 0.02 in Rain Light Rain
11:56 AM 39.9 °F 33.4 °F 37.0 °F 89% 29.83 in 7.0 mi SW 10.4 mph - 0.01 in Rain Light Rain
12:56 PM 41.0 °F 33.5 °F 37.9 °F 89% 29.81 in 7.0 mi SW 13.8 mph - 0.00 in   Overcast
1:31 PM 42.8 °F 36.6 °F 37.4 °F 81% 29.78 in 7.0 mi WSW 11.5 mph - N/A   Overcast
1:46 PM 42.8 °F 36.6 °F 39.2 °F 87% 29.79 in 7.0 mi WSW 11.5 mph - N/A   Overcast
1:56 PM 44.1 °F 38.6 °F 39.9 °F 85% 29.80 in 8.0 mi WSW 10.4 mph - N/A   Mostly Cloudy
2:33 PM 42.8 °F 36.2 °F 37.4 °F 81% 29.78 in 8.0 mi WSW 12.7 mph - N/A   Overcast
2:56 PM 43.0 °F 36.0 °F 37.9 °F 82% 29.79 in 8.0 mi WSW 13.8 mph - N/A   Overcast
3:56 PM 43.0 °F 35.1 °F 37.0 °F 80% 29.81 in 8.0 mi WSW 17.3 mph - N/A   Overcast
4:56 PM 39.9 °F 30.5 °F 33.1 °F 77% 29.85 in 8.0 mi WNW 19.6 mph 26.5 mph N/A   Overcast
5:56 PM 37.9 °F 28.2 °F 32.0 °F 79% 29.89 in 8.0 mi West 18.4 mph - N/A   Overcast
6:32 PM 37.4 °F 27.5 °F 32.0 °F 81% 29.89 in 7.0 mi West 18.4 mph 25.3 mph N/A   Overcast
6:56 PM 36.0 °F 26.3 °F 32.0 °F 86% 29.94 in 6.0 mi WNW 16.1 mph - N/A   Overcast
7:19 PM 35.6 °F 26.6 °F 33.8 °F 93% 29.93 in 4.0 mi WNW 13.8 mph 20.7 mph N/A   Overcast
7:56 PM 35.1 °F 25.2 °F 30.9 °F 85% 29.97 in 9.0 mi West 16.1 mph - N/A   Overcast
8:56 PM 34.0 °F 23.8 °F 30.9 °F 89% 29.99 in 10.0 mi West 16.1 mph - N/A   Overcast
9:42 PM 33.8 °F 24.8 °F 28.4 °F 81% 29.97 in 10.0 mi WNW 12.7 mph - N/A   Overcast
9:56 PM 33.1 °F 22.6 °F 28.9 °F 85% 30.01 in 10.0 mi WNW 16.1 mph - N/A   Overcast
10:56 PM 32.0 °F 21.6 °F 27.0 °F 82% 30.04 in 10.0 mi NW 15.0 mph - N/A   Overcast
11:56 PM 30.0 °F 20.5 °F 25.0 °F 82% 30.04 in 10.0 mi NW 11.5 mph - N/A   Overcast